Location: Hopewell Observatory
(38.8698°N, 77.6988°W)
Time: 11:17:46
(UTC-04:00)

Cosmos 1378 Rocket - Pass Details

Date: 26 May 2018
Orbit: 601 x 628 km, 82.5° (Epoch: 20 August)

Event Time Altitude Azimuth Distance (km) Brightness Sun altitude
Rises 21:02:17 0° 190° (S) 2,843 6.7 -6.9°
Reaches altitude 10° 21:04:30 10° 192° (SSW) 1,941 5.9 -7.2°
Maximum altitude 21:08:47 73° 277° (W) 631 3.8 -7.9°
Drops below altitude 10° 21:13:05 10° 3° (N) 1,951 6.6 -8.6°
Sets 21:15:19 0° 6° (N) 2,858 7.4 -8.9°
